FW4286 Weather Reports


time (UTC)temp
F
wind
direction
speed
knots
gust
knots
rain 1hr
in
rain 24hr
in
rain mn
in
humidity
%
barometer
mb
20260906162000 81 21 4.3 11.3 0.00 0.41 0.01 77 1014.7
20260906161459 81 107 6.1 11.3 0.00 0.41 0.01 76 1014.7
20260906160959 81 65 2.6 6.1 0.00 0.41 0.01 78 1014.6
20260906160459 80 42 3.5 5.2 0.00 0.41 0.01 79 1014.6
20260906160004 80 28 2.6 6.1 0.00 0.41 0.01 79 1014.7
20260906155459 80 24 3.5 7.8 0.00 0.41 0.01 78 1014.8
20260906154459 80 29 4.3 9.6 0.00 0.41 0.01 79 1014.7
20260906153459 79 105 4.3 8.7 0.00 0.41 0.01 80 1014.9
20260906152958 79 61 3.5 7.0 0.00 0.41 0.01 81 1014.7
20260906151958 79 30 3.5 7.8 0.00 0.41 0.01 82 1014.8
20260906151458 79 36 4.3 7.8 0.00 0.41 0.01 82 1014.6
20260906150959 79 57 4.3 5.2 0.00 0.41 0.01 83 1014.7
20260906150002 78 34 3.5 5.2 0.00 0.41 0.01 83 1014.7
20260906145458 78 49 0.9 7.8 0.00 0.41 0.01 83 1014.8
20260906144959 78 29 3.5 7.8 0.00 0.41 0.01 84 1014.8
20260906143458 77 23 1.7 4.3 0.00 0.41 0.01 85 1014.8
20260906142959 77 360 2.6 4.3 0.00 0.41 0.01 86 1014.7
20260906141958 77 13 1.7 5.2 0.00 0.41 0.01 86 1014.6
20260906141458 77 323 2.6 7.0 0.00 0.41 0.01 86 1014.5
20260906140002 76 38 2.6 5.2 0.00 0.41 0.01 87 1014.3
20260906135458 76 72 2.6 4.3 0.00 0.41 0.01 87 1014.3
20260906134959 76 40 2.6 4.3 0.00 0.41 0.01 87 1014.3
20260906134459 76 360 2.6 4.3 0.00 0.41 0.01 88 1014.1
20260906133458 75 325 1.7 5.2 0.00 0.41 0.01 90 1014.2
20260906132958 75 18 1.7 5.2 0.00 0.41 0.01 90 1014.1
20260906132459 74 43 3.5 5.2 0.00 0.41 0.01 91 1014.1
20260906131958 74 96 3.5 5.2 0.00 0.41 0.01 92 1014.0
20260906131458 74 58 3.5 5.2 0.00 0.41 0.01 92 1014.2
20260906130958 74 39 2.6 5.2 0.00 0.41 0.01 93 1014.3
20260906130458 74 71 3.5 5.2 0.00 0.41 0.01 92 1014.3
20260906130001 74 52 2.6 5.2 0.00 0.41 0.01 93 1014.2
20260906125458 73 46 1.7 4.3 0.00 0.41 0.01 93 1014.2
20260906124458 73 349 2.6 5.2 0.00 0.41 0.01 94 1014.2
20260906124000 73 80 2.6 5.2 0.00 0.41 0.01 94 1014.2
20260906123500 73 26 2.6 5.2 0.00 0.41 0.01 94 1014.2
20260906122958 73 50 2.6 4.3 0.00 0.41 0.01 94 1014.1
20260906122458 73 29 1.7 4.3 0.00 0.41 0.01 95 1014.1
20260906121959 73 42 1.7 4.3 0.00 0.41 0.01 95 1014.0
20260906120959 72 10 1.7 5.2 0.00 0.41 0.01 95 1014.0
20260906120459 72 57 2.6 5.2 0.00 0.41 0.01 94 1013.8
20260906120003 72 355 3.5 7.0 0.00 0.41 0.01 95 1013.7
20260906115458 72 350 3.5 7.0 0.00 0.41 0.01 95 1013.6
20260906114959 72 5 1.7 4.3 0.00 0.41 0.01 95 1013.5
20260906114458 72 41 1.7 4.3 0.00 0.41 0.01 95 1013.6
20260906114000 73 13 1.7 3.5 0.00 0.41 0.01 95 1013.6
20260906112458 73 22 0.9 3.5 0.00 0.41 0.01 95 1013.5
20260906111959 73 55 1.7 3.5 0.00 0.41 0.01 95 1013.4
20260906111458 73 37 1.7 3.5 0.00 0.41 0.01 95 1013.3
20260906110958 73 78 1.7 3.5 0.00 0.41 0.01 95 1013.3
20260906110459 73 61 1.7 3.5 0.01 0.41 0.01 95 1013.1
20260906110000 73 19 0.9 3.5 0.01 0.41 0.01 95 1013.0
20260906105457 73 54 1.7 7.0 0.01 0.41 0.01 95 1012.9
20260906104958 73 360 1.7 7.0 0.01 0.41 0.01 95 1012.9
20260906104457 73 355 2.6 5.2 0.01 0.41 0.01 95 1012.8
20260906104000 73 51 2.6 5.2 0.01 0.41 0.01 95 1012.8
20260906103457 73 17 2.6 4.3 0.01 0.41 0.01 95 1012.9
20260906102958 73 12 1.7 2.6 0.01 0.41 0.01 95 1012.8
20260906102457 73 46 1.7 2.6 0.01 0.41 0.01 95 1012.7
20260906101957 73 46 0.9 2.6 0.01 0.41 0.01 95 1012.6
20260906101457 73 46 1.7 2.6 0.01 0.41 0.01 95 1012.5
20260906100957 73 46 0.9 0.9 0.01 0.41 0.01 95 1012.4
20260906100457 73 46 0.0 0.9 0.00 0.40 0.00 95 1012.3
20260906095457 73 46 0.9 1.7 0.00 0.40 0.00 95 1012.2
20260906094957 73 46 0.9 1.7 0.00 0.40 0.00 95 1012.2
20260906094458 73 46 0.9 2.6 0.00 0.40 0.00 95 1012.2
20260906093957 73 54 0.9 2.6 0.00 0.40 0.00 95 1012.1
20260906093458 73 54 0.9 2.6 0.00 0.40 0.00 95 1012.2
20260906092957 73 78 0.9 2.6 0.00 0.40 0.00 95 1012.1
20260906092457 73 78 0.9 2.6 0.00 0.40 0.00 95 1012.2
20260906091958 73 94 0.9 3.5 0.00 0.40 0.00 95 1012.2
20260906090957 73 50 1.7 2.6 0.00 0.40 0.00 95 1012.1
20260906090458 73 69 1.7 3.5 0.00 0.40 0.00 95 1012.1
20260906090000 73 46 1.7 5.2 0.00 0.40 0.00 95 1012.1
20260906084958 73 44 1.7 2.6 0.00 0.40 0.00 95 1012.1
20260906084457 73 44 1.7 2.6 0.00 0.40 0.00 95 1012.1
20260906083957 73 64 0.9 2.6 0.00 0.40 0.00 95 1012.0
20260906083457 73 69 1.7 2.6 0.00 0.40 0.00 95 1012.0
20260906082458 73 64 1.7 3.5 0.00 0.40 0.00 95 1011.6
20260906081958 73 53 1.7 3.5 0.00 0.40 0.00 95 1011.7
20260906081457 73 53 1.7 4.3 0.00 0.40 0.00 95 1011.7
20260906080957 73 50 2.6 4.3 0.00 0.40 0.00 95 1011.6
20260906080457 73 63 0.9 2.6 0.00 0.40 0.00 95 1011.4
20260906080001 73 355 0.0 2.6 0.00 0.40 0.00 95 1011.3
20260906075457 73 355 0.9 2.6 0.00 0.40 0.00 95 1011.2
20260906074457 73 22 0.0 0.0 0.00 0.40 0.00 95 1011.2
20260906073957 73 22 0.0 0.0 0.00 0.40 0.00 95 1011.1
20260906072957 73 22 0.0 0.0 0.00 0.40 0.00 95 1011.2
20260906072457 73 360 0.0 0.0 0.00 0.40 0.00 95 1011.2
20260906071458 73 360 0.0 0.0 0.00 0.40 0.00 95 1011.2
20260906070957 73 360 0.0 0.0 0.00 0.40 0.00 95 1011.2
20260906070457 73 360 0.0 0.0 0.00 0.40 0.00 95 1011.1
20260906070001 73 360 0.0 0.0 0.00 0.40 0.00 95 1011.2
20260906065457 73 360 0.0 0.0 0.00 0.40 0.00 95 1011.1
20260906064957 73 360 0.0 0.0 0.00 0.40 0.00 95 1011.1
20260906064457 73 360 0.0 0.0 0.00 0.40 0.00 95 1011.2
20260906063957 73 360 0.0 0.0 0.00 0.40 0.00 95 1011.3
20260906063457 73 360 0.0 0.0 0.00 0.40 0.00 95 1011.4
20260906062958 73 360 0.0 0.0 0.00 0.40 0.00 95 1011.3
20260906062457 73 360 0.0 0.0 0.00 0.40 0.00 95 1011.4
20260906061958 73 360 0.0 0.0 0.00 0.40 0.00 95 1011.4
20260906060958 73 360 0.0 0.0 0.00 0.40 0.00 95 1011.5
20260906060458 73 360 0.0 0.0 0.00 0.40 0.00 95 1011.5
20260906060000 73 360 0.0 0.0 0.00 0.40 0.00 95 1011.8
20260906055458 73 360 0.0 0.0 0.00 0.40 0.00 94 1011.8
20260906054958 73 360 0.0 0.0 0.00 0.40 0.00 94 1011.8
20260906054458 73 360 0.0 0.0 0.00 0.40 0.00 94 1011.8
20260906053957 73 360 0.0 0.0 0.00 0.40 0.00 94 1011.9
20260906053459 73 360 0.0 0.0 0.00 0.40 0.00 94 1012.1
20260906052958 73 360 0.0 0.0 0.00 0.40 0.00 94 1012.2
20260906052458 73 360 0.0 0.0 0.00 0.40 0.00 94 1012.1
20260906051958 73 360 0.0 0.0 0.00 0.40 0.00 94 1012.3
20260906051459 73 360 0.0 0.0 0.00 0.40 0.00 94 1012.4
20260906050958 73 360 0.0 0.0 0.00 0.40 0.00 94 1012.4
20260906045959 73 219 0.0 0.0 0.00 0.40 0.00 94 1012.5
20260906045457 73 219 0.0 0.0 0.00 0.40 0.00 94 1012.5
20260906044456 73 219 0.0 0.0 0.00 0.40 0.00 94 1012.5
20260906043957 73 219 0.0 0.0 0.00 0.40 0.00 94 1012.4
20260906043457 73 219 0.0 0.0 0.00 0.40 0.00 94 1012.4
20260906042501 73 277 0.0 0.0 0.00 0.40 0.00 94 1012.4
20260906042002 73 184 0.0 0.0 0.00 0.40 0.00 94 1012.4
20260906041501 73 184 0.0 0.0 0.00 0.40 0.00 94 1012.5
20260906040501 73 184 0.0 0.0 0.00 0.40 0.00 94 1012.4
20260906040006 73 184 0.0 0.0 0.00 0.40 0.00 94 1012.3
20260906035500 73 184 0.0 0.0 0.00 0.40 0.40 94 1012.4
20260906035001 73 184 0.0 0.0 0.00 0.40 0.40 94 1012.6
20260906034501 73 184 0.0 0.0 0.00 0.40 0.40 94 1012.7
20260906034001 73 184 0.0 0.0 0.00 0.40 0.40 94 1012.5
20260906033501 73 184 0.0 0.0 0.00 0.40 0.40 94 1012.6
20260906033001 73 184 0.0 0.0 0.00 0.40 0.40 94 1012.6
20260906032502 73 184 0.0 0.0 0.00 0.40 0.40 94 1012.7
20260906032001 73 184 0.0 0.0 0.00 0.40 0.40 94 1012.8
20260906031503 74 184 0.0 0.0 0.00 0.40 0.40 94 1012.8
20260906031003 74 184 0.0 0.0 0.00 0.40 0.40 94 1012.7
20260906030005 74 184 0.0 0.0 0.00 0.40 0.40 94 1012.8
20260906025500 74 184 0.0 0.0 0.00 0.40 0.40 94 1012.7
20260906024500 74 184 0.0 0.0 0.00 0.40 0.40 94 1012.8
20260906023959 74 184 0.0 0.0 0.00 0.40 0.40 94 1012.8
20260906023459 74 184 0.0 0.0 0.00 0.40 0.40 94 1012.8
20260906023000 74 184 0.0 0.0 0.00 0.40 0.40 94 1012.9
20260906021500 74 184 0.0 0.0 0.00 0.40 0.40 94 1012.9
20260906021000 74 184 0.0 0.0 0.00 0.40 0.40 94 1012.7
20260906020500 74 184 0.0 0.0 0.00 0.40 0.40 94 1012.6
20260906020003 74 184 0.0 0.0 0.00 0.40 0.40 94 1012.7
20260906014959 74 184 0.0 0.0 0.00 0.40 0.40 94 1012.6
20260906014501 74 184 0.0 0.0 0.00 0.40 0.40 94 1012.6
20260906014001 74 184 0.0 0.0 0.00 0.40 0.40 93 1012.6
20260906013000 74 184 0.0 0.0 0.00 0.40 0.40 93 1012.3
20260906012459 74 184 0.0 0.0 0.00 0.40 0.40 93 1012.2
20260906012001 74 184 0.0 0.0 0.00 0.40 0.40 93 1012.1
20260906011500 74 184 0.0 0.0 0.00 0.40 0.40 93 1011.9
20260906011000 74 184 0.0 0.0 0.00 0.40 0.40 93 1012.0
20260906010501 74 184 0.0 0.0 0.00 0.40 0.40 93 1012.2
20260906005000 75 184 0.0 1.7 0.00 0.40 0.40 93 1012.0
20260906004459 75 184 0.0 0.9 0.00 0.40 0.40 93 1012.1
20260906003959 75 184 0.0 0.9 0.00 0.40 0.40 93 1012.1
20260906003459 75 184 0.0 1.7 0.00 0.40 0.40 93 1012.0
20260906003001 75 184 0.9 1.7 0.00 0.40 0.40 93 1012.0
20260906002459 75 184 0.0 1.7 0.00 0.40 0.40 93 1011.9
20260906002001 75 184 0.0 1.7 0.00 0.40 0.40 93 1011.9
20260906000959 75 184 0.0 0.9 0.00 0.40 0.40 93 1011.5
20260906000500 75 184 0.0 0.9 0.00 0.40 0.40 93 1011.5
20260906000005 75 184 0.0 1.7 0.00 0.40 0.40 93 1011.4
20260905235501 75 184 0.9 1.7 0.00 0.40 0.40 93 1011.3
20260905235000 75 355 0.9 2.6 0.00 0.40 0.40 93 1011.2
20260905234459 75 355 1.7 2.6 0.00 0.40 0.40 93 1011.2
20260905233459 75 40 0.9 1.7 0.00 0.40 0.40 93 1010.9
20260905233000 75 40 0.9 3.5 0.00 0.40 0.40 93 1010.7
20260905232000 75 305 1.7 3.5 0.00 0.40 0.40 93 1010.9
20260905231500 75 305 1.7 2.6 0.00 0.40 0.40 93 1010.9
20260905230959 75 305 0.0 1.7 0.00 0.40 0.40 93 1010.6
20260905230459 75 305 0.0 2.6 0.00 0.40 0.40 93 1010.6
20260905225000 75 130 0.9 5.2 0.00 0.40 0.40 93 1010.2
20260905223000 75 121 1.7 2.6 0.01 0.40 0.40 92 1010.3
20260905221501 75 346 0.9 1.7 0.02 0.40 0.40 91 1010.5
20260905221000 75 346 0.0 0.9 0.02 0.40 0.40 91 1010.6
20260905220501 75 346 0.0 2.6 0.02 0.40 0.40 91 1010.5
20260905220003 75 346 0.9 2.6 0.02 0.40 0.40 91 1010.6
20260905215459 75 194 0.9 1.7 0.02 0.40 0.40 91 1010.7
20260905215001 75 194 0.9 4.3 0.02 0.40 0.40 91 1010.8
20260905214500 76 194 1.7 4.3 0.01 0.39 0.39 91 1010.9
20260905214000 76 224 2.6 4.3 0.01 0.39 0.39 91 1010.7
20260905213500 75 278 0.0 1.7 0.02 0.39 0.39 91 1010.3
20260905212459 75 278 0.9 1.7 0.35 0.38 0.38 90 1010.5
20260905211959 75 278 0.9 3.5 0.38 0.38 0.38 90 1010.6
20260905211500 75 278 2.6 4.3 0.38 0.38 0.38 89 1010.7
20260905210959 76 312 3.5 4.3 0.38 0.38 0.38 89 1010.7
20260905210459 76 157 0.9 5.2 0.38 0.38 0.38 89 1010.4
20260905210002 76 160 3.5 7.0 0.38 0.38 0.38 89 1010.5
20260905205459 76 157 2.6 9.6 0.38 0.38 0.38 88 1010.4
20260905204459 76 71 2.6 6.1 0.38 0.38 0.38 87 1010.3
20260905203459 77 78 4.3 13.9 0.37 0.37 0.37 82 1010.7
20260905203000 80 41 4.3 17.4 0.19 0.19 0.19 74 1011.4
20260905202741 82 259 9.6 17.4 0.12 0.12 0.12 72 1011.5
20260905201500 91 44 9.6 19.1 0.00 0.00 0.00 58 1010.0
20260905200003 96 26 1.7 3.5 0.00 0.00 0.00 54 1009.8
20260905195459 96 30 0.9 2.6 0.00 0.00 0.00 54 1009.5
20260905194459 96 33 1.7 3.5 0.00 0.00 0.00 51 1009.9
20260905194000 96 42 2.6 4.3 0.00 0.00 0.00 52 1009.9
20260905193459 96 344 2.6 5.2 0.00 0.00 0.00 52 1009.7
20260905192959 96 63 2.6 7.8 0.00 0.00 0.00 53 1009.7
20260905192459 96 355 3.5 8.7 0.00 0.00 0.00 52 1009.7
20260905192001 96 23 3.5 8.7 0.00 0.00 0.00 52 1009.9
20260905191500 97 13 3.5 7.8 0.00 0.00 0.00 52 1009.9
20260905191000 98 251 1.7 7.8 0.00 0.00 0.00 49 1009.9
20260905190002 98 319 1.7 7.0 0.00 0.00 0.00 50 1009.9
20260905185458 98 355 3.5 5.2 0.00 0.00 0.00 51 1009.9
20260905184958 98 255 1.7 4.3 0.00 0.00 0.00 50 1009.9
20260905184458 98 9 1.7 4.3 0.00 0.00 0.00 49 1010.0
20260905183958 97 182 1.7 9.6 0.00 0.00 0.00 51 1010.1
20260905183458 97 284 6.1 9.6 0.00 0.00 0.00 53 1010.2
20260905182958 97 185 3.5 9.6 0.00 0.00 0.00 51 1010.3
20260905182500 97 298 3.5 7.0 0.00 0.00 0.00 51 1010.4
20260905181958 97 355 2.6 6.1 0.00 0.00 0.00 51 1010.5
20260905181459 96 253 2.6 8.7 0.00 0.00 0.00 52 1010.6
20260905180500 96 335 2.6 7.0 0.00 0.00 0.00 54 1010.9
20260905180003 96 317 4.3 9.6 0.00 0.00 0.00 53 1011.1
20260905175458 96 175 0.9 9.6 0.00 0.00 0.00 53 1011.1
20260905174458 95 298 3.5 7.8 0.00 0.00 0.00 53 1011.3
20260905173958 95 5 2.6 11.3 0.00 0.00 0.00 55 1011.4
20260905173458 95 297 7.0 11.3 0.00 0.00 0.00 55 1011.6
20260905173000 95 267 2.6 7.8 0.00 0.00 0.00 56 1011.7
20260905172458 95 252 4.3 7.8 0.00 0.00 0.00 55 1011.8
20260905171958 95 337 3.5 11.3 0.00 0.00 0.00 56 1011.8
20260905171458 95 245 3.5 7.8 0.00 0.00 0.00 55 1011.8
20260905170458 94 297 3.5 8.7 0.00 0.00 0.00 56 1012.0
20260905170002 94 327 3.5 8.7 0.00 0.00 0.00 55 1012.1
20260905165458 94 266 3.5 7.8 0.00 0.00 0.00 56 1012.0
20260905164959 94 298 3.5 7.0 0.00 0.00 0.00 57 1012.0
20260905164459 93 10 3.5 7.8 0.00 0.00 0.00 58 1012.1
20260905163958 93 269 3.5 7.8 0.00 0.00 0.00 58 1012.2
20260905163458 93 321 3.5 10.4 0.00 0.00 0.00 57 1012.3
20260905162959 93 277 4.3 10.4 0.00 0.00 0.00 58 1012.3